User: anonymous   Login
Location: Unspecified
(0.0000°N, 0.0000°E)
Time: 08:38:19
(UTC+00:00)
Language:

APRIZESAT 6 - Orbit

View from above orbital plane
View from above orbital plane
View from above satellite
View from above satellite

Ground track
Ground track

The orbit data is extracted from the following two-line orbital elements,

1 37793U 11044F   19345.74728549  .00000031  00000-0  13520-4 0  9996
2 37793  98.4066 148.6893 0048149  80.5751 291.6835 14.72421386446810
Epoch (UTC): 11 December 2019 17:56:05
Eccentricity: 0.0048149
inclination: 98.4066°
perigee height: 619 km
apogee height: 687 km
right ascension of ascending node: 148.6893°
argument of perigee: 80.5751°
revolutions per day: 14.72421386
mean anomaly at epoch: 291.6835°
orbit number at epoch: 44681

The dashed part of the orbit path shows where the satellite is in the earth's shadow,  

DLR